• In Austria
  • List of Countries
  • For 7 days
  • Water Temperature
  • Satellite Maps
  • Weather Map
  • News
  • Weather Widgets
  • user-avatar
    Login

    Hourly Weather Kavarna

    Today, 25 February, Sunday

    Time Temperature Precipitation Wind Pressure Humidity
    00:00 -2°C° 0.1 mm 8 mps 758 mmHg 90%
    01:00 -4°C° 0.1 mm 9 mps 758 mmHg 89%
    02:00 -5°C° 0.1 mm 9 mps 758 mmHg 88%
    03:00 -5°C° 0 mm 9 mps 758 mmHg 86%
    04:00 -6°C° 0 mm 9 mps 759 mmHg 85%
    05:00 -8°C° 0 mm 9 mps 759 mmHg 83%
    06:00 -8°C° 0 mm 9 mps 759 mmHg 82%
    07:00 -8°C° 0 mm 9 mps 760 mmHg 80%
    08:00 -8°C° 0 mm 9 mps 760 mmHg 79%
    09:00 -7°C° 0 mm 8 mps 760 mmHg 77%
    10:00 -6°C° 0 mm 8 mps 761 mmHg 75%
    11:00 -5°C° 0 mm 8 mps 761 mmHg 72%
    12:00 -4°C° 0 mm 7 mps 761 mmHg 72%
    13:00 -3°C° 0 mm 7 mps 761 mmHg 72%
    14:00 -3°C° 0 mm 7 mps 761 mmHg 71%
    15:00 -3°C° 0 mm 7 mps 761 mmHg 73%
    16:00 -3°C° 0 mm 7 mps 761 mmHg 74%
    17:00 -3°C° 0 mm 7 mps 761 mmHg 76%
    18:00 -3°C° 0.1 mm 7 mps 762 mmHg 77%
    19:00 -4°C° 0.1 mm 7 mps 762 mmHg 77%
    20:00 -5°C° 0.1 mm 8 mps 762 mmHg 78%
    21:00 -5°C° 0.2 mm 8 mps 762 mmHg 80%
    22:00 -5°C° 0.2 mm 8 mps 762 mmHg 83%
    23:00 -6°C° 0.2 mm 8 mps 762 mmHg 85%

    Tomorrow, 26 February, Monday

    Time Temperature Precipitation Wind Pressure Humidity
    00:00 -6°C° 0.3 mm 9 mps 762 mmHg 86%
    01:00 -6°C° 0.3 mm 9 mps 762 mmHg 87%
    02:00 -6°C° 0.3 mm 9 mps 762 mmHg 88%
    03:00 -7°C° 0.3 mm 10 mps 762 mmHg 88%
    04:00 -7°C° 0.3 mm 10 mps 761 mmHg 87%
    05:00 -7°C° 0.3 mm 11 mps 761 mmHg 87%
    06:00 -7°C° 0.3 mm 11 mps 761 mmHg 87%
    07:00 -7°C° 0.3 mm 11 mps 761 mmHg 87%
    08:00 -7°C° 0.3 mm 12 mps 760 mmHg 87%
    09:00 -6°C° 0.5 mm 12 mps 760 mmHg 88%
    10:00 -6°C° 0.5 mm 13 mps 760 mmHg 88%
    11:00 -6°C° 0.5 mm 13 mps 760 mmHg 89%
    12:00 -6°C° 0.5 mm 13 mps 759 mmHg 89%
    13:00 -5°C° 0.5 mm 14 mps 758 mmHg 89%
    14:00 -5°C° 0.5 mm 14 mps 757 mmHg 89%
    15:00 -5°C° 0.7 mm 14 mps 757 mmHg 89%
    16:00 -5°C° 0.7 mm 14 mps 756 mmHg 90%
    17:00 -5°C° 0.7 mm 15 mps 755 mmHg 90%
    18:00 -5°C° 0.7 mm 15 mps 755 mmHg 90%
    19:00 -5°C° 0.7 mm 16 mps 754 mmHg 90%
    20:00 -5°C° 0.7 mm 16 mps 754 mmHg 89%
    21:00 -5°C° 2.7 mm 16 mps 753 mmHg 90%
    22:00 -5°C° 2.7 mm 15 mps 753 mmHg 91%
    23:00 -5°C° 2.7 mm 14 mps 753 mmHg 92%

    Day after tomorrow, 27 February, Tuesday

    Time Temperature Precipitation Wind Pressure Humidity
    00:00 -5°C° 2 mm 14 mps 752 mmHg 92%
    01:00 -5°C° 2 mm 14 mps 752 mmHg 92%
    02:00 -5°C° 2 mm 14 mps 752 mmHg 91%
    03:00 -6°C° 0.9 mm 14 mps 751 mmHg 91%
    04:00 -7°C° 0.9 mm 15 mps 751 mmHg 91%
    05:00 -8°C° 0.9 mm 16 mps 751 mmHg 90%
    06:00 -8°C° 0.6 mm 15 mps 751 mmHg 90%
    07:00 -9°C° 0.6 mm 15 mps 752 mmHg 91%
    08:00 -9°C° 0.6 mm 14 mps 752 mmHg 91%
    09:00 -10°C° 0.4 mm 13 mps 753 mmHg 92%
    10:00 -11°C° 0.4 mm 12 mps 754 mmHg 92%
    11:00 -11°C° 0.4 mm 11 mps 755 mmHg 92%
    12:00 -11°C° 0.1 mm 11 mps 755 mmHg 92%
    13:00 -10°C° 0.1 mm 10 mps 756 mmHg 91%
    14:00 -10°C° 0.1 mm 9 mps 756 mmHg 90%
    15:00 -10°C° 0 mm 8 mps 757 mmHg 90%
    16:00 -10°C° 0 mm 8 mps 758 mmHg 90%
    17:00 -9°C° 0 mm 7 mps 758 mmHg 89%
    18:00 -10°C° 0 mm 6 mps 759 mmHg 90%
    19:00 -11°C° 0 mm 6 mps 759 mmHg 91%
    20:00 -12°C° 0 mm 5 mps 760 mmHg 92%
    21:00 -12°C° 0 mm 5 mps 760 mmHg 92%
    22:00 -13°C° 0 mm 5 mps 761 mmHg 92%
    23:00 -14°C° 0 mm 5 mps 761 mmHg 93%

    28 February, Wednesday

    Time Temperature Precipitation Wind Pressure Humidity
    00:00 -14°C° 0 mm 5 mps 761 mmHg 93%
    01:00 -14°C° 0 mm 5 mps 761 mmHg 92%
    02:00 -15°C° 0 mm 5 mps 762 mmHg 92%
    03:00 -14°C° 0 mm 5 mps 761 mmHg 92%
    04:00 -14°C° 0 mm 5 mps 761 mmHg 92%
    05:00 -14°C° 0 mm 5 mps 761 mmHg 92%
    06:00 -14°C° 0.4 mm 6 mps 761 mmHg 93%
    07:00 -12°C° 0.4 mm 6 mps 761 mmHg 94%
    08:00 -13°C° 0.4 mm 7 mps 761 mmHg 95%
    09:00 -12°C° 1 mm 8 mps 761 mmHg 95%
    10:00 -12°C° 1 mm 9 mps 760 mmHg 95%
    11:00 -12°C° 1 mm 10 mps 760 mmHg 95%
    12:00 -12°C° 0.9 mm 10 mps 760 mmHg 94%
    13:00 -12°C° 0.9 mm 10 mps 760 mmHg 94%
    14:00 -12°C° 0.9 mm 10 mps 760 mmHg 94%
    15:00 -12°C° 0.5 mm 10 mps 760 mmHg 93%
    16:00 -12°C° 0.5 mm 10 mps 760 mmHg 92%
    17:00 -13°C° 0.5 mm 10 mps 761 mmHg 92%
    18:00 -13°C° 0.1 mm 10 mps 761 mmHg 91%
    19:00 -13°C° 0.1 mm 10 mps 762 mmHg 91%
    20:00 -13°C° 0.1 mm 10 mps 763 mmHg 91%
    21:00 -14°C° 0 mm 9 mps 763 mmHg 90%
    22:00 -15°C° 0 mm 9 mps 764 mmHg 90%
    23:00 -16°C° 0 mm 9 mps 764 mmHg 89%

    1 March, Thursday

    Time Temperature Precipitation Wind Pressure Humidity
    00:00 -16°C° 0 mm 9 mps 765 mmHg 90%
    01:00 -16°C° 0 mm 8 mps 765 mmHg 90%
    02:00 -16°C° 0 mm 8 mps 766 mmHg 91%
    03:00 -16°C° 0 mm 8 mps 766 mmHg 92%
    04:00 -15°C° 0 mm 7 mps 766 mmHg 92%
    05:00 -16°C° 0 mm 6 mps 766 mmHg 93%
    06:00 -16°C° 0 mm 6 mps 767 mmHg 93%
    07:00 -14°C° 0 mm 5 mps 767 mmHg 92%
    08:00 -14°C° 0 mm 4 mps 767 mmHg 92%
    09:00 -12°C° 0 mm 4 mps 767 mmHg 90%
    10:00 -9°C° 0 mm 3 mps 768 mmHg 87%
    11:00 -7°C° 0 mm 3 mps 768 mmHg 85%
    12:00 -7°C° 0 mm 3 mps 767 mmHg 83%
    13:00 -5°C° 0 mm 2 mps 767 mmHg 81%
    14:00 -4°C° 0 mm 2 mps 767 mmHg 79%
    15:00 -4°C° 0 mm 2 mps 766 mmHg 80%
    16:00 -4°C° 0 mm 2 mps 766 mmHg 82%
    17:00 -4°C° 0 mm 2 mps 766 mmHg 83%
    18:00 -6°C° 0 mm 3 mps 766 mmHg 81%
    19:00 -6°C° 0 mm 3 mps 766 mmHg 79%
    20:00 -7°C° 0 mm 3 mps 766 mmHg 78%
    21:00 -7°C° 0 mm 4 mps 766 mmHg 79%
    22:00 -7°C° 0 mm 4 mps 765 mmHg 80%
    23:00 -5°C° 0 mm 4 mps 765 mmHg 81%

    2 March, Friday

    Time Temperature Precipitation Wind Pressure Humidity
    00:00 -6°C° 0 mm 5 mps 765 mmHg 82%
    01:00 -5°C° 0 mm 5 mps 764 mmHg 83%
    02:00 -4°C° 0 mm 6 mps 764 mmHg 84%
    03:00 -4°C° 0 mm 6 mps 763 mmHg 85%
    04:00 -3°C° 0 mm 6 mps 763 mmHg 85%
    05:00 -3°C° 0 mm 6 mps 762 mmHg 86%
    06:00 -2°C° 0 mm 6 mps 762 mmHg 86%
    07:00 -2°C° 0 mm 6 mps 762 mmHg 87%
    08:00 -1°C° 0 mm 7 mps 761 mmHg 87%
    09:00 -1°C° 0 mm 7 mps 761 mmHg 90%
    10:00 0°C° 0 mm 7 mps 760 mmHg 93%
    11:00 0°C° 0 mm 7 mps 760 mmHg 97%
    12:00 0°C° 0 mm 7 mps 759 mmHg 97%
    13:00 0°C° 0 mm 7 mps 759 mmHg 97%
    14:00 0°C° 0 mm 7 mps 758 mmHg 97%
    15:00 +1°C° 0 mm 6 mps 758 mmHg 97%
    16:00 +1°C° 0 mm 6 mps 758 mmHg 97%
    17:00 +1°C° 0 mm 6 mps 757 mmHg 97%
    18:00 +1°C° 0 mm 6 mps 757 mmHg 97%
    19:00 +1°C° 0 mm 6 mps 757 mmHg 97%
    20:00 +1°C° 0 mm 5 mps 756 mmHg 96%
    21:00 +1°C° 0 mm 5 mps 756 mmHg 96%
    22:00 +1°C° 0 mm 5 mps 756 mmHg 95%
    23:00 +1°C° 0 mm 5 mps 756 mmHg 95%
    Show more